Home   Weather   Sharjah   Past weeks

Flag for United Arab Emirates Past Weather in Sharjah, Sharjah, United Arab Emirates — Yesterday and Last 2 Weeks

Now
100 °F

Passing clouds.


Feels Like: 110 °F
Forecast: 83 / 103 °F
Wind: 10 mph from Southwest

Location: Sharjah International Airport

Current Time: May 27, 2017 at 2:01:10 pm

Latest Report: May 27, 2017 at 1:00 pm


Visibility: N/A

Pressure: 29.65 "Hg

Humidity: 40%

Dew Point: 72 °F

Location of SharjahLocation

Past Weather in Sharjah — Graph

°F

Sharjah Temperature Yesterday

Maximum temperature yesterday: 100 °F (at 12:00 pm)
Minimum temperature yesterday: 81 °F (at 6:00 am)
Average temperature yesterday: 90 °F

High & Low Weather Summary for the Past Weeks

 TemperatureHumidityPressure
High108 °F (May 25, 2:00 pm)84% (May 19, 5:00 am)29.83 "Hg (May 19, 5:00 am)
Low73 °F (May 14, 5:00 am)9% (May 24, 2:00 pm)29.53 "Hg (May 21, 4:00 pm)
Average90 °F49%29.68 "Hg
* Reported May 12 1:00 pm — May 27 1:00 pm, Sharjah. Weather by CustomWeather, © 2017

Note: Actual official high and low records may vary slightly from our data, if they occured in-between our weather recording intervals... More about our weather records

Advertising

Sharjah Weather History for the Previous 24 Hours

Scroll right to see more
 ConditionsComfort  
Time TempWeatherWind HumidityBarometerVisibility
1:00 pm
Sat, May 27
100 °FPassing clouds.10 mph40%29.65 "HgN/A
12:00 pm100 °FPassing clouds.8 mph25%29.68 "HgN/A
11:00 am97 °FSunny.8 mph30%29.71 "Hg10 mi
10:00 am91 °FSunny.10 mph44%29.71 "Hg10 mi
9:00 am86 °FSunny.12 mph62%29.71 "Hg10 mi
8:00 am82 °FSunny.8 mph74%29.71 "Hg10 mi
7:00 am81 °FSunny.6 mph79%29.68 "Hg10 mi
6:00 am79 °FSunny.5 mph84%29.68 "Hg10 mi
5:00 am79 °FClear.8 mph84%29.65 "Hg10 mi
4:00 am81 °FClear.8 mph79%29.65 "Hg10 mi
3:00 am81 °FClear.9 mph79%29.65 "Hg10 mi
2:00 am82 °FClear.8 mph74%29.65 "Hg10 mi
1:00 am82 °FPassing clouds.9 mph79%29.65 "HgN/A
12:00 am84 °FClear.9 mph74%29.65 "Hg10 mi
11:00 pm
Fri, May 26
86 °FClear.8 mph70%29.65 "Hg10 mi
10:00 pm88 °FClear.7 mph62%29.68 "Hg10 mi
9:00 pm88 °FClear.5 mph62%29.65 "Hg10 mi
7:00 pm90 °FSunny.12 mph59%29.62 "Hg10 mi
6:00 pm93 °FSunny.14 mph56%29.62 "Hg10 mi
5:00 pm95 °FSunny.16 mph50%29.62 "Hg10 mi
4:00 pm99 °FSunny.13 mph44%29.62 "Hg10 mi
3:00 pm100 °FSunny.13 mph37%29.62 "Hg10 mi
2:00 pm100 °FPassing clouds.12 mph40%29.65 "HgN/A
Weather by CustomWeather, © 2017

See weather overviewHow to use our weather pages